• In Hungary
  • List of Countries
  • For 7 days
  • Water Temperature
  • Satellite Maps
  • Weather Map
  • News
  • Weather Widgets
  • user-avatar
    Login

    Hourly Weather Chhattisgarh

    Today, 16 December, Saturday

    Time Temperature Precipitation Wind Pressure Humidity
    00:00 +21°C° 0 mm 1 mps 739 mmHg 52%
    01:00 +20°C° 0 mm 1 mps 739 mmHg 53%
    02:00 +20°C° 0 mm 1 mps 738 mmHg 55%
    03:00 +20°C° 0 mm 1 mps 738 mmHg 56%
    04:00 +19°C° 0 mm 1 mps 738 mmHg 57%
    05:00 +19°C° 0 mm 1 mps 738 mmHg 60%
    06:00 +20°C° 0 mm 1 mps 739 mmHg 56%
    07:00 +22°C° 0 mm 1 mps 739 mmHg 52%
    08:00 +23°C° 0 mm 1 mps 740 mmHg 48%
    09:00 +25°C° 0 mm 1 mps 740 mmHg 43%
    10:00 +27°C° 0 mm 2 mps 740 mmHg 38%
    11:00 +29°C° 0 mm 2 mps 740 mmHg 34%
    12:00 +30°C° 0 mm 2 mps 739 mmHg 32%
    13:00 +31°C° 0 mm 2 mps 738 mmHg 31%
    14:00 +31°C° 0 mm 2 mps 738 mmHg 30%
    15:00 +30°C° 0 mm 2 mps 738 mmHg 33%
    16:00 +28°C° 0 mm 2 mps 738 mmHg 36%
    17:00 +27°C° 0 mm 1 mps 738 mmHg 39%
    18:00 +26°C° 0 mm 1 mps 738 mmHg 40%
    19:00 +25°C° 0 mm 1 mps 739 mmHg 42%
    20:00 +24°C° 0 mm 1 mps 739 mmHg 44%
    21:00 +23°C° 0 mm 2 mps 739 mmHg 46%
    22:00 +23°C° 0 mm 2 mps 739 mmHg 47%
    23:00 +21°C° 0 mm 2 mps 740 mmHg 49%

    Tomorrow, 17 December, Sunday

    Time Temperature Precipitation Wind Pressure Humidity
    00:00 +20°C° 0 mm 2 mps 739 mmHg 51%
    01:00 +20°C° 0 mm 2 mps 739 mmHg 52%
    02:00 +19°C° 0 mm 2 mps 739 mmHg 53%
    03:00 +20°C° 0 mm 1 mps 739 mmHg 54%
    04:00 +19°C° 0 mm 1 mps 739 mmHg 55%
    05:00 +19°C° 0 mm 1 mps 739 mmHg 56%
    06:00 +19°C° 0 mm 2 mps 740 mmHg 53%
    07:00 +20°C° 0 mm 2 mps 741 mmHg 50%
    08:00 +23°C° 0 mm 2 mps 741 mmHg 46%
    09:00 +25°C° 0 mm 2 mps 741 mmHg 41%
    10:00 +27°C° 0 mm 2 mps 741 mmHg 37%
    11:00 +29°C° 0 mm 3 mps 741 mmHg 32%
    12:00 +29°C° 0 mm 3 mps 740 mmHg 30%
    13:00 +30°C° 0 mm 2 mps 739 mmHg 28%
    14:00 +31°C° 0 mm 2 mps 739 mmHg 26%
    15:00 +29°C° 0 mm 2 mps 738 mmHg 30%
    16:00 +27°C° 0 mm 1 mps 738 mmHg 33%
    17:00 +26°C° 0 mm 1 mps 738 mmHg 36%
    18:00 +25°C° 0 mm 1 mps 739 mmHg 38%
    19:00 +24°C° 0 mm 1 mps 739 mmHg 40%
    20:00 +23°C° 0 mm 1 mps 740 mmHg 41%
    21:00 +23°C° 0 mm 2 mps 740 mmHg 43%
    22:00 +21°C° 0 mm 2 mps 740 mmHg 46%
    23:00 +20°C° 0 mm 2 mps 740 mmHg 48%

    Day after tomorrow, 18 December, Monday

    Time Temperature Precipitation Wind Pressure Humidity
    00:00 +19°C° 0 mm 2 mps 739 mmHg 49%
    01:00 +19°C° 0 mm 2 mps 739 mmHg 51%
    02:00 +18°C° 0 mm 2 mps 739 mmHg 52%
    03:00 +18°C° 0 mm 2 mps 739 mmHg 53%
    04:00 +18°C° 0 mm 1 mps 739 mmHg 55%
    05:00 +16°C° 0 mm 1 mps 739 mmHg 56%
    06:00 +19°C° 0 mm 1 mps 740 mmHg 52%
    07:00 +20°C° 0 mm 1 mps 740 mmHg 48%
    08:00 +20°C° 0 mm 2 mps 741 mmHg 44%
    09:00 +23°C° 0 mm 2 mps 741 mmHg 38%
    10:00 +25°C° 0 mm 2 mps 741 mmHg 31%
    11:00 +28°C° 0 mm 2 mps 740 mmHg 25%
    12:00 +28°C° 0 mm 2 mps 740 mmHg 23%
    13:00 +29°C° 0 mm 2 mps 739 mmHg 21%
    14:00 +30°C° 0 mm 2 mps 738 mmHg 18%
    15:00 +28°C° 0 mm 1 mps 738 mmHg 20%
    16:00 +26°C° 0 mm 1 mps 738 mmHg 22%
    17:00 +24°C° 0 mm 1 mps 738 mmHg 24%
    18:00 +23°C° 0 mm 1 mps 738 mmHg 24%
    19:00 +22°C° 0 mm 1 mps 739 mmHg 25%
    20:00 +21°C° 0 mm 1 mps 739 mmHg 25%
    21:00 +21°C° 0 mm 1 mps 739 mmHg 26%
    22:00 +20°C° 0 mm 1 mps 739 mmHg 27%
    23:00 +19°C° 0 mm 1 mps 739 mmHg 28%

    19 December, Tuesday

    Time Temperature Precipitation Wind Pressure Humidity
    00:00 +18°C° 0 mm 1 mps 739 mmHg 29%
    01:00 +18°C° 0 mm 1 mps 738 mmHg 30%
    02:00 +16°C° 0 mm 1 mps 738 mmHg 31%
    03:00 +15°C° 0 mm 1 mps 738 mmHg 31%
    04:00 +15°C° 0 mm 1 mps 738 mmHg 32%
    05:00 +14°C° 0 mm 1 mps 738 mmHg 33%
    06:00 +16°C° 0 mm 1 mps 739 mmHg 31%
    07:00 +18°C° 0 mm 1 mps 740 mmHg 30%
    08:00 +20°C° 0 mm 1 mps 740 mmHg 29%
    09:00 +21°C° 0 mm 2 mps 740 mmHg 25%
    10:00 +25°C° 0 mm 2 mps 740 mmHg 22%
    11:00 +27°C° 0 mm 2 mps 740 mmHg 18%
    12:00 +28°C° 0 mm 2 mps 739 mmHg 17%
    13:00 +29°C° 0 mm 2 mps 738 mmHg 16%
    14:00 +30°C° 0 mm 2 mps 738 mmHg 14%
    15:00 +28°C° 0 mm 1 mps 738 mmHg 16%
    16:00 +26°C° 0 mm 1 mps 738 mmHg 18%
    17:00 +24°C° 0 mm 1 mps 738 mmHg 20%
    18:00 +23°C° 0 mm 1 mps 738 mmHg 21%
    19:00 +22°C° 0 mm 1 mps 739 mmHg 22%
    20:00 +21°C° 0 mm 1 mps 739 mmHg 22%
    21:00 +20°C° 0 mm 1 mps 739 mmHg 24%
    22:00 +20°C° 0 mm 1 mps 739 mmHg 25%
    23:00 +19°C° 0 mm 1 mps 739 mmHg 27%

    20 December, Wednesday

    Time Temperature Precipitation Wind Pressure Humidity
    00:00 +18°C° 0 mm 1 mps 739 mmHg 28%
    01:00 +18°C° 0 mm 1 mps 738 mmHg 29%
    02:00 +16°C° 0 mm 1 mps 738 mmHg 30%
    03:00 +16°C° 0 mm 1 mps 738 mmHg 32%
    04:00 +15°C° 0 mm 1 mps 738 mmHg 33%
    05:00 +15°C° 0 mm 1 mps 739 mmHg 34%
    06:00 +16°C° 0 mm 1 mps 739 mmHg 33%
    07:00 +19°C° 0 mm 1 mps 740 mmHg 32%
    08:00 +20°C° 0 mm 1 mps 741 mmHg 30%
    09:00 +21°C° 0 mm 2 mps 741 mmHg 27%
    10:00 +25°C° 0 mm 2 mps 741 mmHg 24%
    11:00 +27°C° 0 mm 2 mps 740 mmHg 20%
    12:00 +28°C° 0 mm 2 mps 740 mmHg 19%
    13:00 +29°C° 0 mm 2 mps 739 mmHg 18%
    14:00 +30°C° 0 mm 2 mps 738 mmHg 16%
    15:00 +29°C° 0 mm 2 mps 738 mmHg 19%
    16:00 +27°C° 0 mm 1 mps 738 mmHg 21%
    17:00 +25°C° 0 mm 1 mps 738 mmHg 23%
    18:00 +24°C° 0 mm 1 mps 739 mmHg 24%
    19:00 +23°C° 0 mm 1 mps 739 mmHg 26%
    20:00 +22°C° 0 mm 1 mps 740 mmHg 27%
    21:00 +21°C° 0 mm 1 mps 740 mmHg 28%
    22:00 +21°C° 0 mm 1 mps 740 mmHg 29%
    23:00 +20°C° 0 mm 1 mps 740 mmHg 30%

    21 December, Thursday

    Time Temperature Precipitation Wind Pressure Humidity
    00:00 +19°C° 0 mm 1 mps 739 mmHg 32%
    01:00 +19°C° 0 mm 1 mps 739 mmHg 33%
    02:00 +18°C° 0 mm 1 mps 739 mmHg 35%
    03:00 +16°C° 0 mm 1 mps 739 mmHg 36%
    04:00 +16°C° 0 mm 1 mps 739 mmHg 37%
    05:00 +15°C° 0 mm 2 mps 739 mmHg 39%
    06:00 +17°C° 0 mm 2 mps 740 mmHg 37%
    07:00 +18°C° 0 mm 2 mps 740 mmHg 36%
    08:00 +19°C° 0 mm 2 mps 741 mmHg 34%
    09:00 +23°C° 0 mm 2 mps 741 mmHg 30%
    10:00 +25°C° 0 mm 2 mps 740 mmHg 26%
    11:00 +28°C° 0 mm 2 mps 740 mmHg 22%
    12:00 +29°C° 0 mm 2 mps 739 mmHg 20%
    13:00 +30°C° 0 mm 2 mps 738 mmHg 18%
    14:00 +30°C° 0 mm 2 mps 738 mmHg 16%
    15:00 +28°C° 0 mm 2 mps 737 mmHg 19%
    16:00 +27°C° 0 mm 1 mps 737 mmHg 21%
    17:00 +25°C° 0 mm 1 mps 737 mmHg 23%
    18:00 +24°C° 0 mm 1 mps 737 mmHg 24%
    19:00 +23°C° 0 mm 1 mps 738 mmHg 25%
    20:00 +22°C° 0 mm 1 mps 738 mmHg 26%
    21:00 +21°C° 0 mm 1 mps 738 mmHg 28%
    22:00 +20°C° 0 mm 1 mps 738 mmHg 30%
    23:00 +19°C° 0 mm 1 mps 738 mmHg 32%
    Show more